CFI027A ZBAA-ZSAM

Flight info

Callsign CFI027A
Flight time 2h 15m
Altitude 41100
Route ELKUR9Z ELKUR W40 DOXAB/K0915S1370 W40 YQG/K0911S1310 W142 DALIM/K0911S1370 A593 DPX A470 AKDIM/K0895S1430 A470 ENVEN ENVEN8X
Aircraft C750/M-SBDE3FGHRWXY/S

Departure

Time 2026-05-07 12:32
Airport Beijing Capital International Airport (ZBAA)

Arrival

Time 2026-05-07 14:48
Airport Xiamen Gaoqi International Airport (ZSAM)
Time Latitude Longitude Altitude Speed Heading
2026-05-07 12:12 40.08584 116.58890 121 ft 0 kts 353°
2026-05-07 12:23 40.08576 116.58892 124 ft 2 kts 353°
2026-05-07 12:23 40.08556 116.58895 119 ft 2 kts 353°
2026-05-07 12:23 40.08540 116.58897 120 ft 2 kts 353°
2026-05-07 12:23 40.08524 116.58900 119 ft 2 kts 353°
2026-05-07 12:24 40.08500 116.58879 117 ft 0 kts 76°
2026-05-07 12:24 40.08499 116.58874 117 ft 0 kts 82°
2026-05-07 12:26 40.08501 116.58887 119 ft 8 kts 82°
2026-05-07 12:26 40.08513 116.59016 120 ft 13 kts 83°
2026-05-07 12:26 40.08524 116.59139 121 ft 15 kts 83°
2026-05-07 12:27 40.08504 116.59258 119 ft 14 kts 148°
2026-05-07 12:27 40.08403 116.59278 121 ft 16 kts 172°
2026-05-07 12:27 40.08271 116.59298 121 ft 25 kts 173°
2026-05-07 12:27 40.08082 116.59328 121 ft 28 kts 172°
2026-05-07 12:28 40.07883 116.59359 121 ft 28 kts 173°
2026-05-07 12:28 40.07692 116.59389 119 ft 28 kts 171°
2026-05-07 12:28 40.07494 116.59419 120 ft 27 kts 174°
2026-05-07 12:28 40.07336 116.59500 113 ft 23 kts 168°
2026-05-07 12:29 40.07131 116.59531 117 ft 38 kts 172°
2026-05-07 12:29 40.06873 116.59573 124 ft 31 kts 173°
2026-05-07 12:29 40.06657 116.59607 134 ft 31 kts 173°
2026-05-07 12:29 40.06441 116.59641 119 ft 30 kts 173°
2026-05-07 12:30 40.06232 116.59673 120 ft 29 kts 173°
2026-05-07 12:30 40.06042 116.59708 113 ft 28 kts 173°
2026-05-07 12:30 40.05848 116.59733 119 ft 29 kts 173°
2026-05-07 12:30 40.05645 116.59766 117 ft 30 kts 173°
2026-05-07 12:31 40.05481 116.59808 123 ft 16 kts 124°
2026-05-07 12:31 40.05477 116.59848 127 ft 2 kts 70°
2026-05-07 12:31 40.05494 116.59906 125 ft 8 kts 64°
2026-05-07 12:31 40.05537 116.59949 112 ft 9 kts 36°
2026-05-07 12:32 40.05619 116.59999 119 ft 29 kts 357°
2026-05-07 12:32 40.06216 116.59902 123 ft 136 kts 351°
2026-05-07 12:32 40.07231 116.59711 482 ft 154 kts 351°
2026-05-07 12:32 40.08365 116.59507 741 ft 174 kts 351°
2026-05-07 12:33 40.11017 116.59130 952 ft 211 kts 355°
2026-05-07 12:33 40.12451 116.58973 1486 ft 207 kts 354°
2026-05-07 12:33 40.13905 116.58759 1645 ft 227 kts 351°
2026-05-07 12:34 40.15600 116.58429 2262 ft 252 kts 351°
2026-05-07 12:34 40.17309 116.58153 3556 ft 247 kts 352°
2026-05-07 12:34 40.19038 116.57893 4730 ft 251 kts 352°
2026-05-07 12:34 40.20783 116.57621 5836 ft 254 kts 352°
2026-05-07 12:35 40.22563 116.57782 6756 ft 264 kts 15°
2026-05-07 12:35 40.24281 116.58993 6972 ft 307 kts 38°
2026-05-07 12:35 40.25422 116.61280 6867 ft 295 kts 70°
2026-05-07 12:35 40.25717 116.63855 6919 ft 282 kts 82°
2026-05-07 12:36 40.25871 116.66415 6952 ft 281 kts 82°
2026-05-07 12:36 40.26083 116.68923 7218 ft 272 kts 80°
2026-05-07 12:36 40.26328 116.71429 7734 ft 281 kts 80°
2026-05-07 12:36 40.26556 116.73975 8253 ft 284 kts 81°
2026-05-07 12:37 40.26770 116.76530 9018 ft 279 kts 80°
2026-05-07 12:37 40.26988 116.79046 10059 ft 279 kts 80°
2026-05-07 12:37 40.27213 116.81574 11043 ft 278 kts 79°
2026-05-07 12:37 40.27433 116.84081 11856 ft 285 kts 79°
2026-05-07 12:38 40.27660 116.86690 12640 ft 291 kts 78°
2026-05-07 12:38 40.27891 116.89364 13439 ft 298 kts 77°
2026-05-07 12:38 40.28127 116.92086 14212 ft 303 kts 77°
2026-05-07 12:38 40.28327 116.94866 14931 ft 311 kts 82°
2026-05-07 12:39 40.27850 116.97712 15554 ft 332 kts 109°
2026-05-07 12:39 40.26479 117.00212 16238 ft 347 kts 135°
2026-05-07 12:39 40.24383 117.01802 16940 ft 354 kts 163°
2026-05-07 12:39 40.21955 117.02266 17738 ft 353 kts 179°
2026-05-07 12:40 40.19491 117.02403 18602 ft 355 kts 181°
2026-05-07 12:40 40.17042 117.02491 19346 ft 358 kts 181°
2026-05-07 12:40 40.14453 117.02599 19249 ft 390 kts 181°
2026-05-07 12:40 40.11671 117.02733 19426 ft 410 kts 179°
2026-05-07 12:41 40.08746 117.03005 19469 ft 432 kts 178°
2026-05-07 12:41 40.05783 117.03239 19761 ft 408 kts 180°
2026-05-07 12:41 40.03021 117.03366 19756 ft 389 kts 181°
2026-05-07 12:41 40.00252 117.03480 19752 ft 412 kts 180°
2026-05-07 12:42 39.97286 117.03666 19787 ft 435 kts 179°
2026-05-07 12:42 39.94256 117.03884 20418 ft 437 kts 179°
2026-05-07 12:42 39.91241 117.04065 21040 ft 441 kts 180°
2026-05-07 12:42 39.88158 117.04224 21624 ft 446 kts 180°
2026-05-07 12:43 39.85038 117.04405 22222 ft 450 kts 180°
2026-05-07 12:43 39.81891 117.04606 22811 ft 454 kts 180°
2026-05-07 12:43 39.78719 117.04799 23399 ft 459 kts 180°
2026-05-07 12:43 39.75511 117.04981 23930 ft 462 kts 180°
2026-05-07 12:44 39.72292 117.05169 24451 ft 465 kts 181°
2026-05-07 12:44 39.69043 117.05365 24988 ft 468 kts 181°
2026-05-07 12:44 39.65773 117.05560 25504 ft 471 kts 181°
2026-05-07 12:44 39.62527 117.05750 26016 ft 474 kts 181°
2026-05-07 12:45 39.59181 117.05946 26536 ft 477 kts 182°
2026-05-07 12:45 39.55882 117.06141 27051 ft 481 kts 182°
2026-05-07 12:45 39.52528 117.06339 27547 ft 484 kts 182°
2026-05-07 12:45 39.49146 117.06538 28140 ft 486 kts 183°
2026-05-07 12:46 39.45752 117.06737 28675 ft 489 kts 183°
2026-05-07 12:46 39.42336 117.06936 29200 ft 493 kts 183°
2026-05-07 12:46 39.38932 117.07136 29719 ft 496 kts 184°
2026-05-07 12:46 39.35465 117.07339 30205 ft 500 kts 184°
2026-05-07 12:47 39.31976 117.07544 30607 ft 503 kts 185°
2026-05-07 12:47 39.28472 117.07749 31058 ft 505 kts 185°
2026-05-07 12:47 39.24970 117.07956 31664 ft 503 kts 185°
2026-05-07 12:47 39.21476 117.08162 32267 ft 502 kts 186°
2026-05-07 12:48 39.17976 117.08363 32844 ft 501 kts 186°
2026-05-07 12:48 39.14503 117.08564 33441 ft 501 kts 186°
2026-05-07 12:48 39.11015 117.08768 33999 ft 500 kts 187°
2026-05-07 12:48 39.07581 117.08969 34448 ft 501 kts 187°
2026-05-07 12:49 39.04052 117.09162 34442 ft 514 kts 187°
2026-05-07 12:49 39.00461 117.09365 34631 ft 520 kts 186°
2026-05-07 12:49 38.96846 117.09593 35156 ft 518 kts 186°
2026-05-07 12:49 38.93237 117.09811 35675 ft 517 kts 187°
2026-05-07 12:50 38.89649 117.10007 36156 ft 515 kts 187°
2026-05-07 12:50 38.86063 117.10207 36799 ft 513 kts 187°
2026-05-07 12:50 38.82518 117.10417 37356 ft 512 kts 187°
2026-05-07 12:50 38.78953 117.10627 37903 ft 512 kts 187°
2026-05-07 12:51 38.75355 117.10824 37920 ft 523 kts 187°
2026-05-07 12:51 38.71679 117.11025 37926 ft 533 kts 187°
2026-05-07 12:51 38.64163 117.11475 37903 ft 546 kts 187°
2026-05-07 12:52 38.56520 117.11908 38157 ft 550 kts 187°
2026-05-07 12:52 38.52703 117.12129 38383 ft 550 kts 187°
2026-05-07 12:52 38.48918 117.12348 38604 ft 550 kts 187°
2026-05-07 12:53 38.45108 117.12566 38841 ft 548 kts 187°
2026-05-07 12:53 38.41291 117.12782 39036 ft 547 kts 187°
2026-05-07 12:53 38.37488 117.12997 39211 ft 546 kts 187°
2026-05-07 12:53 38.33697 117.13214 39382 ft 546 kts 187°
2026-05-07 12:54 38.29893 117.13431 39555 ft 546 kts 187°
2026-05-07 12:54 38.26109 117.13646 39695 ft 545 kts 187°
2026-05-07 12:54 38.22361 117.13860 39894 ft 543 kts 187°
2026-05-07 12:54 38.18532 117.14076 40043 ft 542 kts 187°
2026-05-07 12:55 38.14814 117.14284 40193 ft 542 kts 187°
2026-05-07 12:55 38.10988 117.14499 40216 ft 545 kts 187°
2026-05-07 12:55 38.07195 117.14716 40406 ft 544 kts 187°
2026-05-07 12:55 38.03414 117.14933 40521 ft 542 kts 188°
2026-05-07 12:56 37.99697 117.15142 40679 ft 542 kts 188°
2026-05-07 12:56 37.95889 117.15352 40828 ft 542 kts 188°
2026-05-07 12:56 37.92173 117.15561 40949 ft 542 kts 188°
2026-05-07 12:56 37.88379 117.15775 40947 ft 544 kts 187°
2026-05-07 12:57 37.80794 117.16202 41088 ft 545 kts 187°
2026-05-07 12:57 37.73242 117.16630 41247 ft 540 kts 187°
2026-05-07 12:58 37.65694 117.17041 41245 ft 544 kts 187°
2026-05-07 12:58 37.58154 117.17474 41249 ft 546 kts 188°
2026-05-07 12:59 37.50546 117.17889 41251 ft 547 kts 188°
2026-05-07 12:59 37.42928 117.18315 41254 ft 547 kts 188°
2026-05-07 13:00 37.35344 117.18737 41265 ft 547 kts 188°
2026-05-07 13:00 37.27723 117.19155 41267 ft 547 kts 188°
2026-05-07 13:01 37.20142 117.19577 41269 ft 546 kts 188°
2026-05-07 13:01 37.12567 117.19990 41258 ft 547 kts 188°
2026-05-07 13:02 37.04959 117.20412 41260 ft 547 kts 188°
2026-05-07 13:02 36.97335 117.20829 41227 ft 547 kts 188°
2026-05-07 13:03 36.89722 117.21247 41265 ft 547 kts 188°
2026-05-07 13:03 36.82112 117.21609 41260 ft 543 kts 191°
2026-05-07 13:04 36.74615 117.21532 41241 ft 540 kts 191°
2026-05-07 13:04 36.67041 117.21489 41274 ft 541 kts 191°
2026-05-07 13:05 36.59549 117.21432 41273 ft 540 kts 191°
2026-05-07 13:05 36.52019 117.21377 41278 ft 540 kts 191°
2026-05-07 13:06 36.44521 117.21388 41262 ft 543 kts 188°
2026-05-07 13:06 36.40767 117.21926 41261 ft 557 kts 180°
2026-05-07 13:06 36.36973 117.23081 41281 ft 569 kts 173°
2026-05-07 13:07 36.29390 117.25932 41269 ft 567 kts 172°
2026-05-07 13:07 36.21818 117.28717 41274 ft 567 kts 172°
2026-05-07 13:08 36.14229 117.31548 41275 ft 568 kts 172°
2026-05-07 13:08 36.06661 117.34334 41221 ft 566 kts 172°
2026-05-07 13:09 35.99176 117.37106 41266 ft 562 kts 172°
2026-05-07 13:09 35.91679 117.39913 41267 ft 562 kts 172°
2026-05-07 13:10 35.84199 117.42718 41264 ft 562 kts 172°
2026-05-07 13:10 35.76782 117.45480 41262 ft 559 kts 172°
2026-05-07 13:11 35.69328 117.48262 41258 ft 558 kts 172°
2026-05-07 13:11 35.61897 117.51021 41260 ft 558 kts 172°
2026-05-07 13:12 35.54471 117.53779 41260 ft 558 kts 172°
2026-05-07 13:12 35.47025 117.56536 41258 ft 558 kts 172°
2026-05-07 13:13 35.40857 117.58817 41264 ft 558 kts 172°
2026-05-07 13:13 35.33401 117.61569 41235 ft 558 kts 172°
2026-05-07 13:14 35.25970 117.64306 41262 ft 558 kts 172°
2026-05-07 13:14 35.18542 117.67037 41263 ft 558 kts 172°
2026-05-07 13:15 35.11108 117.69765 41261 ft 558 kts 172°
2026-05-07 13:15 35.03701 117.72478 41261 ft 558 kts 172°
2026-05-07 13:16 34.96273 117.75201 41255 ft 557 kts 172°
2026-05-07 13:16 34.88830 117.77920 41255 ft 557 kts 172°
2026-05-07 13:17 34.81394 117.80638 41244 ft 557 kts 172°
2026-05-07 13:17 34.73966 117.83326 41250 ft 557 kts 172°
2026-05-07 13:18 34.66498 117.85999 41251 ft 558 kts 172°
2026-05-07 13:18 34.59100 117.88667 41248 ft 557 kts 172°
2026-05-07 13:19 34.51653 117.91325 41246 ft 558 kts 172°
2026-05-07 13:19 34.44204 117.93998 41246 ft 558 kts 172°
2026-05-07 13:20 34.36754 117.96652 41246 ft 558 kts 172°
2026-05-07 13:20 34.29353 117.99294 41248 ft 558 kts 172°
2026-05-07 13:21 34.21904 118.01979 41245 ft 559 kts 172°
2026-05-07 13:21 34.14432 118.04728 41249 ft 559 kts 172°
2026-05-07 13:22 34.06968 118.07418 41204 ft 558 kts 172°
2026-05-07 13:22 33.99530 118.10131 41243 ft 559 kts 172°
2026-05-07 13:23 33.92111 118.12828 41242 ft 560 kts 172°
2026-05-07 13:23 33.84619 118.15556 41244 ft 560 kts 172°
2026-05-07 13:24 33.77209 118.18244 41240 ft 561 kts 172°
2026-05-07 13:24 33.69741 118.20975 41240 ft 561 kts 172°
2026-05-07 13:25 33.62268 118.23684 41240 ft 561 kts 172°
2026-05-07 13:25 33.54784 118.26404 41234 ft 560 kts 172°
2026-05-07 13:26 33.47351 118.29093 41237 ft 560 kts 172°
2026-05-07 13:26 33.39889 118.31792 41237 ft 561 kts 172°
2026-05-07 13:27 33.32404 118.34493 41233 ft 560 kts 172°
2026-05-07 13:27 33.24953 118.37178 41232 ft 559 kts 172°
2026-05-07 13:28 33.17500 118.39862 41233 ft 559 kts 172°
2026-05-07 13:28 33.10040 118.42562 41233 ft 559 kts 172°
2026-05-07 13:29 33.02648 118.45221 41234 ft 559 kts 172°
2026-05-07 13:29 32.95184 118.47910 41233 ft 559 kts 172°
2026-05-07 13:30 32.87729 118.50585 41233 ft 559 kts 172°
2026-05-07 13:30 32.80281 118.53256 41236 ft 559 kts 172°
2026-05-07 13:31 32.72908 118.55894 41233 ft 558 kts 172°
2026-05-07 13:31 32.65478 118.58695 41224 ft 564 kts 167°
2026-05-07 13:32 32.58162 118.62076 41231 ft 565 kts 167°
2026-05-07 13:32 32.50847 118.65375 41225 ft 563 kts 167°
2026-05-07 13:33 32.43533 118.68708 41228 ft 563 kts 167°
2026-05-07 13:33 32.36205 118.72025 41222 ft 563 kts 167°
2026-05-07 13:34 32.25205 118.77004 41188 ft 563 kts 167°
2026-05-07 13:35 32.17943 118.80274 41213 ft 563 kts 167°
2026-05-07 13:35 32.10580 118.83595 41213 ft 563 kts 167°
2026-05-07 13:36 32.03301 118.86866 41216 ft 563 kts 167°
2026-05-07 13:36 31.95984 118.90152 41218 ft 563 kts 167°
2026-05-07 13:37 31.88686 118.93422 41219 ft 563 kts 167°
2026-05-07 13:37 31.81366 118.96696 41224 ft 563 kts 167°
2026-05-07 13:38 31.74052 118.99983 41225 ft 563 kts 167°
2026-05-07 13:38 31.66735 119.03263 41219 ft 563 kts 167°
2026-05-07 13:39 31.59318 119.05970 41194 ft 561 kts 168°
2026-05-07 13:39 31.55689 119.07834 41197 ft 572 kts 160°
2026-05-07 13:39 31.52278 119.10266 41203 ft 581 kts 152°
2026-05-07 13:40 31.45883 119.16082 41216 ft 585 kts 148°
2026-05-07 13:40 31.39341 119.21672 41202 ft 581 kts 151°
2026-05-07 13:41 31.32840 119.27394 41205 ft 584 kts 148°
2026-05-07 13:41 31.26333 119.33045 41202 ft 582 kts 150°
2026-05-07 13:42 31.19828 119.38679 41200 ft 583 kts 149°
2026-05-07 13:42 31.13392 119.44344 41198 ft 582 kts 149°
2026-05-07 13:43 31.06875 119.50022 41200 ft 583 kts 149°
2026-05-07 13:43 31.00389 119.55707 41200 ft 584 kts 149°
2026-05-07 13:44 30.93886 119.61362 41195 ft 584 kts 149°
2026-05-07 13:44 30.87385 119.67030 41194 ft 584 kts 149°
2026-05-07 13:45 30.80861 119.72691 41192 ft 583 kts 149°
2026-05-07 13:45 30.74375 119.78320 41193 ft 583 kts 149°
2026-05-07 13:46 30.67888 119.83910 41184 ft 583 kts 150°
2026-05-07 13:46 30.61330 119.89435 41182 ft 583 kts 150°
2026-05-07 13:47 30.54676 119.94761 41175 ft 574 kts 158°
2026-05-07 13:47 30.47372 119.97982 41168 ft 553 kts 175°
2026-05-07 13:48 30.39868 119.98761 41177 ft 532 kts 191°
2026-05-07 13:48 30.36236 119.98239 41169 ft 520 kts 200°
2026-05-07 13:48 30.32768 119.97186 41165 ft 511 kts 206°
2026-05-07 13:49 30.26442 119.93897 41176 ft 494 kts 218°
2026-05-07 13:49 30.20556 119.89790 41173 ft 495 kts 218°
2026-05-07 13:50 30.18979 119.88768 41186 ft 496 kts 217°
2026-05-07 13:50 30.12815 119.84770 41173 ft 495 kts 218°
2026-05-07 13:51 30.06859 119.80759 41176 ft 494 kts 218°
2026-05-07 13:51 30.00880 119.76827 41166 ft 494 kts 218°
2026-05-07 13:52 29.95005 119.72834 41167 ft 494 kts 218°
2026-05-07 13:52 29.88955 119.69013 41148 ft 502 kts 213°
2026-05-07 13:53 29.82170 119.66603 41132 ft 521 kts 199°
2026-05-07 13:53 29.74819 119.65924 41171 ft 532 kts 191°
2026-05-07 13:54 29.67447 119.65326 41164 ft 530 kts 193°
2026-05-07 13:54 29.60045 119.64919 41163 ft 535 kts 189°
2026-05-07 13:55 29.52653 119.64755 41148 ft 532 kts 192°
2026-05-07 13:55 29.45247 119.64245 41148 ft 534 kts 191°
2026-05-07 13:56 29.37858 119.63834 41151 ft 534 kts 191°
2026-05-07 13:56 29.30427 119.63349 41143 ft 535 kts 191°
2026-05-07 13:57 29.22965 119.62913 41143 ft 537 kts 191°
2026-05-07 13:57 29.15555 119.62451 41140 ft 537 kts 191°
2026-05-07 13:58 29.08092 119.62000 41114 ft 537 kts 191°
2026-05-07 13:58 29.00619 119.61533 41138 ft 538 kts 191°
2026-05-07 13:59 28.93126 119.61066 41141 ft 538 kts 191°
2026-05-07 13:59 28.85668 119.60607 41134 ft 537 kts 191°
2026-05-07 14:00 28.78209 119.60139 41153 ft 538 kts 191°
2026-05-07 14:00 28.70976 119.59695 41148 ft 539 kts 191°
2026-05-07 14:01 28.63518 119.59231 41152 ft 539 kts 191°
2026-05-07 14:01 28.56028 119.58772 41130 ft 539 kts 190°
2026-05-07 14:02 28.48516 119.58303 41136 ft 541 kts 190°
2026-05-07 14:02 28.40988 119.57859 41129 ft 542 kts 190°
2026-05-07 14:03 28.34687 119.57532 41131 ft 542 kts 190°
2026-05-07 14:03 28.27200 119.57101 41119 ft 543 kts 190°
2026-05-07 14:04 28.19643 119.56693 41119 ft 544 kts 189°
2026-05-07 14:04 28.12072 119.56270 41122 ft 543 kts 190°
2026-05-07 14:05 28.04481 119.56082 41119 ft 546 kts 187°
2026-05-07 14:05 27.97225 119.55969 41117 ft 543 kts 187°
2026-05-07 14:06 27.94130 119.55913 41114 ft 544 kts 187°
2026-05-07 14:06 27.86535 119.55840 41117 ft 547 kts 186°
2026-05-07 14:07 27.78941 119.55827 41115 ft 546 kts 187°
2026-05-07 14:07 27.71361 119.55759 41116 ft 545 kts 187°
2026-05-07 14:08 27.63815 119.55734 41119 ft 546 kts 187°
2026-05-07 14:08 27.56217 119.55678 41098 ft 545 kts 187°
2026-05-07 14:09 27.48623 119.55643 41109 ft 546 kts 186°
2026-05-07 14:09 27.41024 119.55597 41101 ft 546 kts 186°
2026-05-07 14:10 27.33448 119.55600 41096 ft 546 kts 186°
2026-05-07 14:10 27.25825 119.55581 41105 ft 545 kts 186°
2026-05-07 14:11 27.18276 119.55536 41096 ft 545 kts 186°
2026-05-07 14:11 27.10682 119.55482 41085 ft 545 kts 186°
2026-05-07 14:12 27.03078 119.55438 41070 ft 545 kts 186°
2026-05-07 14:12 26.95496 119.55386 41080 ft 545 kts 186°
2026-05-07 14:13 26.87921 119.55340 41081 ft 545 kts 186°
2026-05-07 14:13 26.80329 119.55291 41073 ft 545 kts 186°
2026-05-07 14:14 26.72709 119.55243 41073 ft 546 kts 186°
2026-05-07 14:14 26.65170 119.55195 41068 ft 546 kts 186°
2026-05-07 14:15 26.57573 119.55147 41070 ft 546 kts 186°
2026-05-07 14:15 26.49960 119.55098 41052 ft 546 kts 186°
2026-05-07 14:16 26.42357 119.55050 41065 ft 548 kts 186°
2026-05-07 14:16 26.34731 119.54995 41064 ft 548 kts 186°
2026-05-07 14:17 26.27110 119.54884 41054 ft 547 kts 186°
2026-05-07 14:17 26.19607 119.54055 41050 ft 536 kts 199°
2026-05-07 14:18 26.12550 119.51572 41067 ft 531 kts 204°
2026-05-07 14:18 26.05448 119.49197 41064 ft 534 kts 201°
2026-05-07 14:19 25.98365 119.46776 41062 ft 532 kts 204°
2026-05-07 14:19 25.91306 119.44363 41073 ft 535 kts 202°
2026-05-07 14:20 25.84173 119.41962 41069 ft 534 kts 203°
2026-05-07 14:20 25.80630 119.40732 40665 ft 535 kts 203°
2026-05-07 14:20 25.77180 119.39265 39933 ft 529 kts 211°
2026-05-07 14:20 25.73983 119.37290 39222 ft 520 kts 219°
2026-05-07 14:21 25.71222 119.34998 38575 ft 489 kts 226°
2026-05-07 14:21 25.68799 119.32401 37901 ft 473 kts 232°
2026-05-07 14:21 25.66591 119.29781 37292 ft 458 kts 232°
2026-05-07 14:21 25.64435 119.27252 36695 ft 446 kts 232°
2026-05-07 14:22 25.62321 119.24779 36129 ft 438 kts 232°
2026-05-07 14:22 25.60237 119.22325 35545 ft 439 kts 231°
2026-05-07 14:22 25.58136 119.19850 34969 ft 445 kts 231°
2026-05-07 14:22 25.55988 119.17335 34377 ft 451 kts 230°
2026-05-07 14:23 25.53849 119.14836 33763 ft 453 kts 230°
2026-05-07 14:23 25.51680 119.12298 33152 ft 454 kts 230°
2026-05-07 14:23 25.49502 119.09743 32555 ft 456 kts 230°
2026-05-07 14:23 25.47310 119.07177 31947 ft 459 kts 229°
2026-05-07 14:24 25.45110 119.04609 31343 ft 460 kts 229°
2026-05-07 14:24 25.43614 119.02862 30924 ft 461 kts 229°
2026-05-07 14:24 25.42296 119.01322 30565 ft 461 kts 229°
2026-05-07 14:24 25.40097 118.98750 29955 ft 459 kts 229°
2026-05-07 14:25 25.37940 118.96235 29318 ft 453 kts 229°
2026-05-07 14:25 25.35775 118.93714 28722 ft 450 kts 229°
2026-05-07 14:25 25.33656 118.91206 28126 ft 444 kts 230°
2026-05-07 14:25 25.31601 118.88656 27555 ft 440 kts 230°
2026-05-07 14:26 25.29520 118.86196 26973 ft 435 kts 229°
2026-05-07 14:26 25.27471 118.83769 26401 ft 430 kts 229°
2026-05-07 14:27 25.19715 118.74365 24212 ft 412 kts 229°
2026-05-07 14:27 25.17797 118.72050 23674 ft 407 kts 229°
2026-05-07 14:27 25.15903 118.69752 23092 ft 403 kts 230°
2026-05-07 14:28 25.14031 118.67490 22569 ft 401 kts 229°
2026-05-07 14:28 25.12151 118.65231 22039 ft 398 kts 229°
2026-05-07 14:28 25.10285 118.62986 21517 ft 397 kts 229°
2026-05-07 14:28 25.08393 118.60784 20980 ft 396 kts 227°
2026-05-07 14:29 25.06501 118.58634 20474 ft 393 kts 229°
2026-05-07 14:29 25.04613 118.56406 19955 ft 391 kts 229°
2026-05-07 14:29 25.02746 118.54239 19440 ft 389 kts 228°
2026-05-07 14:29 25.00862 118.52105 18930 ft 387 kts 227°
2026-05-07 14:30 24.98996 118.49981 18416 ft 384 kts 228°
2026-05-07 14:30 24.97157 118.47859 17876 ft 381 kts 228°
2026-05-07 14:30 24.95333 118.45758 17370 ft 378 kts 228°
2026-05-07 14:30 24.93513 118.43679 16873 ft 375 kts 228°
2026-05-07 14:31 24.91708 118.41619 16378 ft 372 kts 228°
2026-05-07 14:31 24.89918 118.39568 15887 ft 370 kts 228°
2026-05-07 14:31 24.88147 118.37538 15403 ft 367 kts 228°
2026-05-07 14:31 24.86381 118.35522 14917 ft 364 kts 227°
2026-05-07 14:32 24.84646 118.33540 14444 ft 362 kts 228°
2026-05-07 14:32 24.82912 118.31553 13972 ft 359 kts 227°
2026-05-07 14:32 24.81183 118.29576 13474 ft 357 kts 227°
2026-05-07 14:32 24.79455 118.27606 12990 ft 355 kts 227°
2026-05-07 14:33 24.77742 118.25655 12523 ft 355 kts 227°
2026-05-07 14:33 24.76034 118.23706 12056 ft 353 kts 227°
2026-05-07 14:33 24.74331 118.21762 11589 ft 352 kts 227°
2026-05-07 14:33 24.72672 118.19873 11129 ft 330 kts 227°
2026-05-07 14:34 24.71151 118.18144 10716 ft 305 kts 226°
2026-05-07 14:34 24.69723 118.16517 10312 ft 286 kts 226°
2026-05-07 14:34 24.68387 118.14993 9960 ft 271 kts 226°
2026-05-07 14:34 24.67110 118.13539 9576 ft 258 kts 226°
2026-05-07 14:35 24.65892 118.12153 9249 ft 247 kts 226°
2026-05-07 14:35 24.64721 118.10822 8936 ft 237 kts 226°
2026-05-07 14:35 24.63591 118.09537 8629 ft 231 kts 226°
2026-05-07 14:35 24.62476 118.08269 8334 ft 230 kts 226°
2026-05-07 14:36 24.61369 118.07011 8047 ft 230 kts 226°
2026-05-07 14:36 24.60256 118.05746 7752 ft 230 kts 227°
2026-05-07 14:36 24.59164 118.04506 7492 ft 225 kts 226°
2026-05-07 14:36 24.58085 118.03282 7192 ft 222 kts 227°
2026-05-07 14:37 24.57007 118.02057 6902 ft 223 kts 227°
2026-05-07 14:37 24.54932 117.99531 6312 ft 217 kts 225°
2026-05-07 14:37 24.53922 117.98376 6012 ft 199 kts 226°
2026-05-07 14:38 24.53046 117.97309 5775 ft 185 kts 227°
2026-05-07 14:38 24.52197 117.96277 5531 ft 178 kts 227°
2026-05-07 14:38 24.51371 117.95281 5301 ft 175 kts 226°
2026-05-07 14:38 24.50962 117.94790 5182 ft 175 kts 226°
2026-05-07 14:39 24.50328 117.94030 5022 ft 178 kts 225°
2026-05-07 14:39 24.49489 117.93020 4776 ft 179 kts 226°
2026-05-07 14:39 24.48650 117.92003 4529 ft 180 kts 226°
2026-05-07 14:39 24.47810 117.90985 4291 ft 180 kts 226°
2026-05-07 14:40 24.46822 117.90148 3973 ft 184 kts 206°
2026-05-07 14:40 24.45575 117.89981 3870 ft 174 kts 176°
2026-05-07 14:40 24.44539 117.90383 3878 ft 148 kts 153°
2026-05-07 14:40 24.43761 117.91034 3802 ft 135 kts 143°
2026-05-07 14:41 24.43046 117.91626 3662 ft 121 kts 143°
2026-05-07 14:41 24.42419 117.92191 3571 ft 114 kts 135°
2026-05-07 14:41 24.41985 117.92917 3468 ft 116 kts 110°
2026-05-07 14:41 24.41770 117.93798 3406 ft 123 kts 91°
2026-05-07 14:42 24.41828 117.94731 3309 ft 126 kts 73°
2026-05-07 14:42 24.42209 117.95587 3169 ft 126 kts 52°
2026-05-07 14:42 24.42731 117.96355 3068 ft 125 kts 47°
2026-05-07 14:42 24.43258 117.97117 2958 ft 125 kts 46°
2026-05-07 14:43 24.43794 117.97876 2842 ft 125 kts 46°
2026-05-07 14:43 24.44327 117.98626 2733 ft 125 kts 46°
2026-05-07 14:43 24.44863 117.99377 2619 ft 124 kts 46°
2026-05-07 14:43 24.45385 118.00112 2551 ft 122 kts 46°
2026-05-07 14:44 24.45924 118.00859 2402 ft 125 kts 47°
2026-05-07 14:44 24.46457 118.01613 2241 ft 124 kts 48°
2026-05-07 14:44 24.46983 118.02353 2079 ft 122 kts 47°
2026-05-07 14:44 24.47506 118.03086 1923 ft 121 kts 47°
2026-05-07 14:45 24.48026 118.03810 1768 ft 120 kts 47°
2026-05-07 14:45 24.48535 118.04530 1618 ft 118 kts 48°
2026-05-07 14:45 24.49028 118.05213 1458 ft 118 kts 47°
2026-05-07 14:45 24.49529 118.05922 1307 ft 117 kts 47°
2026-05-07 14:46 24.50032 118.06622 1157 ft 117 kts 47°
2026-05-07 14:46 24.50535 118.07328 1004 ft 118 kts 47°
2026-05-07 14:46 24.51041 118.08039 888 ft 119 kts 47°
2026-05-07 14:46 24.51548 118.08745 741 ft 117 kts 47°
2026-05-07 14:47 24.52042 118.09444 593 ft 115 kts 47°
2026-05-07 14:47 24.52536 118.10127 429 ft 114 kts 47°
2026-05-07 14:47 24.53015 118.10812 259 ft 112 kts 47°
2026-05-07 14:47 24.53488 118.11472 116 ft 111 kts 46°
2026-05-07 14:48 24.53918 118.12074 37 ft 74 kts 59°
2026-05-07 14:48 24.54146 118.12394 39 ft 46 kts 51°
2026-05-07 14:48 24.54311 118.12624 51 ft 32 kts 51°
2026-05-07 14:48 24.54454 118.12825 46 ft 35 kts 56°
2026-05-07 14:49 24.54523 118.13044 48 ft 10 kts 78°
2026-05-07 14:49 24.54528 118.13070 49 ft 0 kts 79°
2026-05-07 14:50 24.54529 118.13074 49 ft 3 kts 78°
2026-05-07 14:50 24.54533 118.13099 47 ft 7 kts 83°
2026-05-07 14:50 24.54487 118.13148 46 ft 14 kts 181°
2026-05-07 14:51 24.54418 118.13116 46 ft 10 kts 254°
2026-05-07 14:51 24.54382 118.13023 50 ft 18 kts 237°
2026-05-07 14:51 24.54285 118.12887 51 ft 25 kts 235°
2026-05-07 14:51 24.54186 118.12738 49 ft 23 kts 232°
2026-05-07 14:52 24.54092 118.12610 53 ft 20 kts 235°
2026-05-07 14:52 24.54031 118.12523 54 ft 13 kts 229°
2026-05-07 14:52 24.53962 118.12535 52 ft 10 kts 144°
2026-05-07 14:52 24.53912 118.12572 54 ft 6 kts 167°
2026-05-07 14:53 24.53872 118.12551 54 ft 8 kts 231°
2026-05-07 14:53 24.53863 118.12526 53 ft 3 kts 195°
2026-05-07 14:53 24.53813 118.12552 55 ft 14 kts 140°
2026-05-07 14:53 24.53793 118.12565 51 ft 0 kts 141°
2026-05-07 14:54 24.53788 118.12569 53 ft 1 kts 141°
2026-05-07 14:54 24.53787 118.12570 54 ft 0 kts 141°
2026-05-07 14:54 24.53782 118.12574 55 ft 2 kts 143°
2026-05-07 14:55 24.53779 118.12577 55 ft 0 kts 143°